Weather History for KAMG - December, 2012

Change the Weather History Date:

Thursday, December 13, 2012

  Actual Average Record
Temperature  
Mean Temperature 48 °F 53 °F  
Max Temperature 50 °F 64 °F 83 °F (1972)
Min Temperature 45 °F 42 °F 7 °F (1962)
Degree Days  
Heating Degree Days 17 12  
Month to date heating degree days 54 145  
Since 1 July heating degree days 361 389  
Cooling Degree Days 0 0  
Month to date cooling degree days 4 7  
Year to date cooling degree days 2662 2472  
Moisture  
Dew Point 44 °F    
Average Humidity 87    
Maximum Humidity 93    
Minimum Humidity 80    
Precipitation  
Precipitation 0.01 in 0.10 in 1.38 in (1985)
Month to date precipitation 0.66 1.28  
Year to date precipitation 34.68 44.64  
Snow  
Snow 0.00 in 0.00 in 0.00 in ()
Month to date snowfall 0.0 0.0  
Since 1 July snowfall 0.0 0.0  
Snow Depth 0.00 in    
Sea Level Pressure  
Sea Level Pressure 30.25 in    
Wind  
Wind Speed 5 mph (NNE)    
Max Wind Speed 14 mph    
Max Gust Speed 22 mph    
Visibility 9 miles    
Events      
T = Trace of Precipitation, MM = Missing Value Source: NWS Daily Summary

Daily Weather History Graph

Daily Weather History Graph

Search for Another Location

Airport or City:

Trip Planner

Search our weather history database for the weather conditions in past years. The results will help you decide how hot, cold, wet, or windy it might be!

Date:

Astronomy

Dec. 13, 2012 Rise Set
Actual Time 7:21 AM EST 5:27 PM EST
Civil Twilight 6:54 AM EST 5:54 PM EST
Nautical Twilight 6:23 AM EST 6:25 PM EST
Astronomical Twilight 5:54 AM EST 6:54 PM EST
Moon 7:29 AM EST (12/13) 6:07 PM EST (12/13)
Length of Visible Light 11h 00m
Length of Day
10h 06m
New Moon, 0% of the Moon is Illuminated
Dec 13
New Moon
Dec 20
First Quarter
Dec 28
Full
Jan 4
Last Quarter
Jan 11
New

Hourly Weather History & Observations

Time (EST) Temp. Windchill Dew Point Humidity Pressure Visibility Wind Dir Wind Speed Gust Speed Precip Events Conditions
12:53 AM 50.0 °F - 46.9 °F 89% 30.18 in 4.0 mi North 5.8 mph - N/A   Overcast
1:48 AM 48.2 °F - 46.4 °F 93% 30.18 in 7.0 mi NNE 4.6 mph - 0.01 in   Overcast
1:53 AM 48.9 °F - 46.9 °F 93% 30.17 in 8.0 mi Variable 6.9 mph - 0.01 in   Overcast
2:00 AM 48.2 °F - 46.4 °F 93% 30.17 in 10.0 mi NNE 4.6 mph - N/A   Overcast
2:39 AM 48.2 °F - 46.4 °F 93% 30.17 in 10.0 mi Variable 3.5 mph - N/A   Overcast
2:53 AM 48.9 °F - 46.0 °F 90% 30.16 in 10.0 mi Variable 3.5 mph - N/A   Overcast
3:12 AM 48.2 °F - 46.4 °F 93% 30.16 in 10.0 mi Variable 4.6 mph - N/A   Overcast
3:33 AM 48.2 °F - 46.4 °F 93% 30.17 in 10.0 mi Variable 4.6 mph - N/A   Overcast
3:40 AM 48.2 °F - 46.4 °F 93% 30.17 in 10.0 mi NNE 4.6 mph - N/A   Overcast
3:53 AM 48.9 °F - 46.0 °F 90% 30.18 in 10.0 mi North 6.9 mph - N/A   Overcast
4:07 AM 48.2 °F - 46.4 °F 93% 30.18 in 10.0 mi Calm Calm - N/A   Overcast
4:53 AM 48.0 °F - 46.0 °F 93% 30.18 in 10.0 mi North 9.2 mph - N/A   Overcast
5:53 AM 46.9 °F - 44.1 °F 90% 30.22 in 10.0 mi North 8.1 mph - N/A   Overcast
6:53 AM 46.9 °F - 44.1 °F 90% 30.24 in 10.0 mi North 9.2 mph - N/A   Overcast
7:53 AM 46.0 °F 42.5 °F 43.0 °F 89% 30.27 in 7.0 mi North 6.9 mph 16.1 mph N/A   Overcast
8:53 AM 46.0 °F 41.0 °F 42.1 °F 86% 30.29 in 10.0 mi North 10.4 mph - N/A   Overcast
9:53 AM 46.0 °F 41.9 °F 42.1 °F 86% 30.30 in 10.0 mi North 8.1 mph - N/A   Overcast
10:53 AM 46.0 °F 43.1 °F 42.1 °F 86% 30.32 in 10.0 mi Variable 5.8 mph - N/A   Overcast
11:53 AM 46.9 °F - 42.1 °F 83% 30.31 in 10.0 mi Variable 3.5 mph - N/A   Overcast
12:53 PM 46.9 °F - 42.1 °F 83% 30.29 in 10.0 mi Variable 3.5 mph - N/A   Overcast
1:53 PM 46.9 °F - 43.0 °F 86% 30.28 in 8.0 mi Variable 4.6 mph - N/A   Overcast
2:53 PM 46.0 °F 41.9 °F 42.1 °F 86% 30.29 in 9.0 mi NNE 8.1 mph - N/A   Overcast
3:53 PM 46.0 °F 43.1 °F 42.1 °F 86% 30.29 in 9.0 mi NNE 5.8 mph - N/A   Overcast
4:26 PM 46.4 °F - 42.8 °F 87% 30.28 in 10.0 mi Calm Calm - N/A   Overcast
4:53 PM 46.9 °F - 42.1 °F 83% 30.29 in 10.0 mi Calm Calm - N/A   Overcast
5:46 PM 46.4 °F 42.9 °F 42.8 °F 87% 30.29 in 7.0 mi North 6.9 mph - N/A   Overcast
6:53 PM 46.0 °F 42.5 °F 43.0 °F 89% 30.30 in 4.0 mi North 6.9 mph - N/A   Overcast
7:53 PM 46.0 °F 44.8 °F 43.0 °F 89% 30.31 in 7.0 mi North 3.5 mph - N/A   Overcast
8:24 PM 46.4 °F - 42.8 °F 87% 30.31 in 8.0 mi Calm Calm - N/A   Overcast
8:53 PM 46.9 °F - 43.0 °F 86% 30.31 in 9.0 mi Calm Calm - N/A   Overcast
9:53 PM 48.0 °F - 43.0 °F 83% 30.32 in 10.0 mi Calm Calm - N/A   Overcast
10:50 PM 48.2 °F - 44.6 °F 87% 30.32 in 9.0 mi ENE 3.5 mph - N/A   Overcast
10:53 PM 48.0 °F - 44.1 °F 86% 30.32 in 9.0 mi ENE 3.5 mph - N/A   Overcast
11:53 PM 48.0 °F - 44.1 °F 86% 30.32 in 9.0 mi Calm Calm - N/A   Overcast